Back to catalog

STARLINK-36345

AliveCommunicationsVLEO
NORAD 68243·PAYLOAD·🇺🇸 United States

Launched Mar 17, 2026 from Vandenberg Space Force Base

Loading…

Next Passes (next 24 hours)

TLE

FreshSource: CelesTrak SupGP

Epoch: Sep 14, 2026, 21:10 UTC

1 68243C 26054M   26257.88243056 -.00097136  00000+0 -28692-2 0  2571
2 68243  53.1575 127.8346 0001306  89.1606 197.4371 15.34447292    16

Track STARLINK-36345 in real time with AllMySat

Download on the App Store